EHI
0 0 0 0 0 0 0 0 0 0 0 0 0 0 0 0 0 0 0 0 0 0 0 0 0 0 0 0 0 0 0 0 0 0 0 0 0 0
0 0 0 0 0 0 0 0 0 0 0 0 0 0 0 0 0 0 0 0 0 0 0 0 0 0 0 0 0 0 0 0 0 0 0 0 0 0
0 0 0 0 0 0 0 0 0 0 0 0 0 0 0 0 0 0 0 0 0 0 0 0 0 0 0 0 0 0 0 0 0 0 0 0 0 0
0 0 0 0 0 0 0 0 0 0 0 0 0 0 0 0 0 0 0 0 0 0 0 0 0 0 0 0 0 0 0 0 0 0 0 0 0 0
0 0 0 0 0 0 0 0 0 0 0 0 0 0 0 0 0 0 0 0 0 0 0 0 0 0 0 0 0 0 0 0 0 0 0 0 0 0
0 0 0 0 0 0 0 0 0 0 0 0 0 0 0 0 0 0 0 0 0 0 0 0 0 0 0 0 0 0 0 0 0 0 0 0 0 0
0 0 0 0 0 0 0 0 0 0 0 0 0 0 0 0 0 0 0 0 0 0 0 0 0 0 0 0 0 0 0 0 0 0 0 0 0 0
0 0 0 0 0 0 0 0 0 0 0 0 0 0 0 0 0 0 0 0 0 0 0 0 0 0 0 0 0 0 0 0 0 0 0 0 0 0
0 0 0 0 0 0 0 0 0 0 0 0 0 0 0 0 0 0 0 0 0 0 0 0 0 0 0 0 0 0 0 0 0 0 0 0 0 0
0 0 0 0 0 0 0 0 0 0 0 0 0 0 0 0 0 0 0 0 0 0 0 0 0 0 0 0 0 0 0 0 0 0 0 0 0 0
0 0 0 0 0 0 0 0 0 0 0 0 0 0 0 0 0 0 0 0 0 0 0 0 0 0 0 0 0 0 0 0 0 0 0 0 0 0
0 0 0 0 0 0 0 0 0 0 0 0 0 0 0 0 0 0 0 0 0 0 0 0 0 0 0 0 0 0 0 0 0 0 0 0 0 0
0 0 0 0 0 0 0 0 0 0 0 0 0 0 0 0 0 0 0 0 0 0 0 0 0 0 0 0 0 0 0 0 0 0 0 0 0 0
0 0 0 0 0 0 0 0 0 0 0 0 0 0 0 0 0 0 0 0 0 0 0 0 0 0 0 0 0 0 0 0 0 0 0 0 0 0
0 0 0 0 0 0 0 0 0 0 0 0 0 0 0 0 0 0 0 0 0 0 0 0 0 0 0 0 0 0 0 0 0 0 0 0 0 0
0 0 0 0 0 0 0 0 0 0 0 0 0 0 0 0 0 0 0 0 0 0 0 0 0 0 0 0 0 0 0 0 0 0 0 0 0 0
0 0 0 0 0 0 0 0 0 0 0 0 0 0 0 0 0 0 0 0 0 0 0 0 0 0 0 0 0 0 0 0 0 0 0 0 0 0
0 0 0 0 0 0 0 0 0 0 0 0 0 0 0 0 0 0 0 0 0 0 0 0 0 0 0 0 0 0 0 0 0 0 0 0 0 0
0 0 0 0 0 0 0 0 0 0 0 0 0 0 0 0 0 0 0 0 0 0 0 0 0 0 0 0 0 0 0 0 0 0 0 0 0 0
0 0 0 0 0 0 0 0 0 0 0 0 0 0 0 0 0 0 0 0 0 0 0 0 0 0 0 0 0 0 0 0 0 0 0 0 0 0
0 0 0 0 0 0 0 0 0 0 0 0 0 0 0 0 0 0 0 0 0 0 0 0 0 0 0 0 0 0 0 0 0 0 0 0 0 0
0 0 0 0 0 0 0 0 0 0 0 0 0 0 0 0 0 0 0 0 0 0 0 0 0 0 0 0 0 0 0 0 0 0 0 0 0 0
0 0 0 0 0 0 0 0 0 0 0 0 0 0 0 0 0 0 0 0 0 0 0 0 0 0 0 0 0 0 0 0 0 0 0 0 0 0
Wind_Speed
4 4 4 3 3 2 2 2 4 2 1 3 2 3 3 2 3 2 3 5 6 6 6 6 6 6 6 5 6 5 5 5 5 4 3 2 2 3
3 5 4 3 3 3 3 3 3 3 1 1 1 2 3 3 4 3 2 5 6 6 6 6 6 5 5 5 5 5 5 5 5 4 4 3 3 3
4 5 5 4 4 3 3 3 3 3 2 1 1 2 3 4 4 3 2 2 3 6 6 6 6 6 6 5 5 5 5 5 6 5 4 4 4 4
4 5 4 4 5 4 4 4 3 2 2 1 2 3 3 3 3 3 3 3 2 5 6 6 6 6 6 6 6 5 5 5 6 6 6 5 5 6
3 4 3 4 4 3 4 3 2 3 2 2 1 2 2 3 3 3 4 3 3 5 5 6 6 7 7 7 6 6 6 6 6 6 6 6 6 7
3 3 3 3 3 2 3 3 3 3 3 2 2 2 2 3 2 3 4 4 3 4 5 5 6 7 7 8 7 7 6 6 6 7 7 7 7 7
3 3 3 4 5 3 3 2 3 3 2 2 2 2 3 3 3 2 2 3 3 3 3 3 3 3 4 6 7 8 7 7 7 8 8 7 7 7
3 2 3 4 6 7 7 5 4 3 2 2 1 1 2 2 2 2 2 2 3 3 3 3 2 3 3 2 6 7 7 8 8 9 9 8 8 8
2 2 2 3 4 3 5 7 5 4 3 3 2 1 2 2 1 2 1 1 2 3 2 3 3 3 3 4 7 8 8 9 9 10 10 9 9 9
2 3 3 2 2 3 3 4 3 3 2 1 2 2 2 2 2 1 1 1 2 2 1 1 3 3 4 3 6 8 8 8 10 10 11 10 9 9
1 2 3 2 2 4 4 3 3 3 3 3 2 2 2 2 1 1 2 2 2 3 2 1 2 3 3 3 4 7 8 8 9 10 11 11 10 9
1 1 2 2 2 3 3 2 1 2 2 3 4 5 3 3 3 1 1 1 1 3 2 1 2 3 4 3 3 4 5 7 9 9 10 10 10 6
2 1 1 2 1 2 2 2 2 1 1 1 2 3 3 2 2 1 1 2 2 3 3 1 1 1 2 4 4 3 3 3 4 6 8 10 10 6
3 2 2 2 2 1 1 2 2 1 1 1 1 2 2 2 2 2 2 2 3 4 4 2 2 2 2 3 4 4 3 3 3 4 4 7 9 9
3 4 4 3 2 1 2 2 1 0 0 0 2 2 3 3 3 2 3 2 2 3 3 2 2 2 2 3 4 4 5 5 3 3 4 4 4 4
2 2 1 1 0 1 2 2 0 1 2 2 2 3 2 2 2 2 2 2 2 4 4 3 3 3 3 4 4 5 4 4 4 4 5 5 4 4
3 1 1 0 1 1 1 2 1 1 1 2 2 2 2 2 2 2 1 1 2 3 4 4 3 3 5 4 4 5 5 5 5 5 4 6 6 5
5 2 2 2 3 3 2 2 2 2 2 2 2 2 3 3 3 2 2 2 3 4 4 4 3 4 4 4 6 6 5 5 5 5 4 6 8 6
4 3 3 4 4 3 3 3 3 3 3 3 3 3 3 3 3 3 3 3 4 4 4 3 2 2 5 8 6 6 5 6 5 5 5 5 8 7
4 4 5 4 4 4 4 4 4 3 3 3 3 3 3 3 3 3 3 4 4 4 4 3 3 4 5 8 8 6 7 6 5 6 6 6 7 9
5 5 5 5 5 5 4 4 4 4 4 3 3 4 3 3 3 4 4 6 5 4 5 6 6 7 5 4 6 7 6 8 9 7 7 7 8 7
5 6 5 5 5 5 5 4 4 4 5 4 4 4 4 4 5 5 4 4 5 5 6 6 5 3 3 5 9 10 9 7 8 13 14 12 8 8
6 6 6 6 5 5 5 5 6 5 5 5 5 4 4 4 4 4 5 5 5 5 6 6 5 4 5 6 8 9 11 10 7 7 8 12 17 20
Wind_Direction
63 63 61 46 50 59 85 117 127 107 6 333 345 344 350 12 19 20 14 18 28 31 30 29 31 36 36 38 33 25 18 14 13 6 343 316 287 261
63 66 56 45 48 50 64 69 91 126 125 310 319 322 350 15 19 9 3 14 15 19 22 22 26 27 25 28 28 22 12 359 352 348 340 323 305 289
58 68 59 54 55 46 55 63 64 90 106 335 338 344 6 9 358 358 6 6 353 5 6 9 13 15 14 12 13 12 6 358 348 337 331 326 314 301
68 72 60 64 57 48 56 57 55 68 106 70 356 356 1 350 353 1 1 7 354 2 1 5 7 8 8 6 1 357 354 351 348 340 330 322 318 311
88 89 79 77 65 53 57 54 45 51 66 85 16 353 347 350 2 356 3 357 356 6 8 13 11 11 9 6 2 355 350 347 342 337 330 320 313 309
75 86 91 97 102 90 71 62 67 60 55 61 31 357 346 338 15 7 356 353 353 3 8 11 10 13 11 9 4 1 356 353 350 342 332 322 313 307
65 62 74 87 92 93 95 99 91 81 65 57 30 8 353 357 356 340 350 335 337 357 354 354 358 0 354 358 1 356 355 355 353 346 336 325 318 314
89 65 63 59 65 67 71 83 105 112 112 99 57 16 312 312 323 342 1 10 337 336 358 331 353 347 334 340 351 356 360 357 350 345 341 339 332 324
117 103 86 69 65 60 50 49 47 54 100 143 147 220 247 254 295 348 352 340 280 296 347 320 335 333 325 345 354 3 2 358 352 347 343 340 338 332
123 136 124 98 85 94 74 53 34 19 24 91 173 225 231 230 205 218 250 296 301 316 16 326 323 312 315 323 343 358 356 352 348 345 341 338 335 333
101 125 132 123 119 112 95 72 31 354 1 26 24 4 354 3 47 59 23 32 343 318 345 4 312 312 309 309 327 348 345 340 338 337 335 334 332 330
89 80 162 160 144 124 118 111 44 314 336 355 3 360 2 358 6 98 155 124 318 303 312 353 320 339 326 306 314 328 330 326 330 329 330 330 328 326
168 205 237 207 160 140 136 163 231 247 311 356 351 344 344 340 328 313 198 174 192 254 270 285 290 303 275 297 305 304 309 313 320 318 322 322 321 318
186 205 227 237 241 250 231 261 283 349 59 19 349 326 318 307 298 293 278 244 221 235 258 226 231 244 270 293 296 303 303 298 299 300 305 313 312 307
194 202 214 234 261 288 290 297 314 80 122 271 276 276 268 270 287 303 308 300 289 274 269 239 232 249 236 259 278 289 302 300 293 295 301 301 297 301
185 204 212 239 243 288 308 326 317 213 203 226 250 267 283 295 293 287 285 300 311 303 292 269 249 236 254 259 263 280 281 284 293 293 291 291 288 280
151 103 66 29 336 316 308 293 286 292 256 248 253 275 287 291 285 283 272 283 278 288 301 302 286 258 245 249 270 273 279 280 278 285 293 294 286 276
145 164 207 220 229 237 247 262 257 248 245 242 245 251 259 266 275 276 262 257 268 273 276 283 303 317 311 275 231 257 271 274 279 280 276 285 289 284
168 200 215 222 228 230 231 233 240 243 237 234 240 249 255 260 264 269 268 266 267 267 268 269 270 279 297 297 278 226 250 274 279 280 270 265 276 281
202 212 220 223 223 225 228 231 240 246 238 236 238 243 245 249 257 262 261 260 268 275 279 272 254 246 258 278 287 280 245 252 268 278 280 276 272 275
215 222 225 224 226 227 227 227 227 231 233 230 236 238 237 237 248 255 260 266 265 268 272 269 258 257 262 279 284 282 270 249 250 262 275 284 289 291
218 224 228 227 226 225 225 224 227 231 233 232 234 236 236 234 244 253 256 261 261 262 268 274 277 274 255 265 277 283 287 283 265 259 257 254 264 275
222 224 227 227 225 223 222 224 226 231 229 228 231 235 235 238 242 245 252 256 263 270 277 283 283 271 263 265 275 280 283 287 287 284 275 262 259 265